Location: Newark
(22.3145°N, 88.6625°E)
Time: 13:57:23
(UTC+00:00)

Envisat - Visible Passes

Search period start: 22 September 2019 00:00
Search period end: 02 October 2019 00:00
Orbit: 764 x 766 km, 98.1° (Epoch: 22 September)

Date Brightness Start Highest point End Pass type
(mag) Time Alt. Az. Time Alt. Az. Time Alt. Az.
22 Sep 4.7 13:03:38 10° SSW 13:08:16 36° W 13:12:54 10° NNW visible
23 Sep 3.0 12:26:26 10° SSE 12:31:31 85° ENE 12:36:35 10° N visible
24 Sep 5.8 13:30:25 10° SW 13:33:49 18° W 13:37:15 10° NW visible
25 Sep 4.1 12:52:07 10° S 12:56:59 48° W 13:01:53 10° NNW visible
26 Sep 3.0 12:15:17 10° SSE 12:20:17 64° ENE 12:25:18 10° N visible
27 Sep 5.3 13:18:29 10° SSW 13:22:32 24° W 13:26:36 10° NW visible
28 Sep 3.5 12:40:43 10° S 12:45:44 65° WSW 12:50:46 10° NNW visible
29 Sep 6.1 13:46:20 10° WSW 13:48:08 12° W 13:49:57 10° WNW visible
30 Sep 4.8 13:06:46 10° SSW 13:11:15 32° W 13:15:46 10° NW visible
01 Oct 3.0 12:29:25 10° SSE 12:34:29 86° WSW 12:39:34 10° NNW visible
